GW3211 Weather Reports


Display with metric or nautical units.
time (UTC)temp
F
wind
direction
speed
MPH
gust
MPH
rain 1hr
in
rain 24hr
in
rain mn
in
humidity
%
barometer
mb
20260505011409 59 134 0.0 2.0 0.00 0.00 0.00 77 1012.7
20260505010908 60 89 0.0 2.0 0.00 0.00 0.00 75 1012.5
20260505010338 60 112 2.0 2.0 0.00 0.00 0.00 75 1012.6
20260505005808 61 121 0.0 2.0 0.00 0.00 0.00 76 1012.5
20260505005308 61 319 0.0 2.0 0.00 0.00 0.00 75 1012.5
20260505004739 61 132 0.0 2.0 0.00 0.00 0.00 76 1012.5
20260505004208 61 53 1.0 4.0 0.00 0.00 0.00 75 1012.6
20260505003706 62 129 0.0 4.0 0.00 0.00 0.00 74 1012.4
20260505003137 62 149 0.0 3.0 0.00 0.00 0.00 74 1012.2
20260505002608 62 157 0.0 2.0 0.00 0.00 0.00 74 1012.4
20260505002109 62 147 1.0 2.0 0.00 0.00 0.00 74 1012.5
20260505001537 62 111 0.0 2.0 0.00 0.00 0.00 73 1012.3
20260505001240 62 127 0.0 2.0 0.00 0.00 0.00 72 1012.6
20260505000506 63 165 0.0 2.0 0.00 0.00 0.00 71 1012.3
20260504235936 64 26 0.0 2.0 0.00 0.00 0.00 69 1012.5
20260504235405 64 81 0.0 2.0 0.00 0.00 0.00 68 1012.4
20260504234906 65 109 1.0 3.0 0.00 0.00 0.00 66 1012.5
20260504234552 66 10 0.0 3.0 0.00 0.00 0.00 64 1012.4
20260504233806 66 134 0.0 3.0 0.00 0.00 0.00 63 1012.5
20260504233306 67 254 0.0 3.0 0.00 0.00 0.00 61 1012.3
20260504232735 67 135 0.0 3.0 0.00 0.00 0.00 60 1012.0
20260504232204 67 222 0.0 3.0 0.00 0.00 0.00 60 1012.0
20260504231705 68 142 0.0 7.0 0.00 0.00 0.00 57 1012.3
20260504231400 69 248 0.0 7.0 0.00 0.00 0.00 56 1012.5
20260504230635 69 156 1.0 6.0 0.00 0.00 0.00 55 1012.3
20260504230105 69 173 0.0 6.0 0.00 0.00 0.00 55 1012.2
20260504225534 69 202 4.0 5.0 0.00 0.00 0.00 53 1012.4
20260504225033 69 191 2.0 11.0 0.00 0.00 0.00 52 1012.0
20260504224730 69 177 5.0 11.0 0.00 0.00 0.00 51 1012.1
20260504223935 69 246 2.0 8.0 0.00 0.00 0.00 51 1012.2
20260504223658 69 205 4.0 12.0 0.00 0.00 0.00 50 1012.2
20260504222900 70 232 8.0 13.0 0.00 0.00 0.00 49 1012.3
20260504222332 70 189 7.0 16.0 0.00 0.00 0.00 47 1012.2
20260504221833 71 120 0.0 16.0 0.00 0.00 0.00 46 1012.2
20260504221303 70 244 3.0 16.0 0.00 0.00 0.00 45 1012.2
20260504220734 70 176 6.0 13.0 0.00 0.00 0.00 45 1012.4
20260504220457 71 190 3.0 14.0 0.00 0.00 0.00 47 1012.2
20260504215702 71 185 3.0 15.0 0.00 0.00 0.00 47 1012.3
20260504215131 71 204 6.0 15.0 0.00 0.00 0.00 46 1012.3
20260504214633 72 166 3.0 11.0 0.00 0.00 0.00 45 1012.3
20260504214102 71 219 7.0 15.0 0.00 0.00 0.00 46 1012.3
20260504213531 71 198 9.0 15.0 0.00 0.00 0.00 46 1012.4
20260504213032 71 210 7.0 15.0 0.00 0.00 0.00 46 1012.4
20260504211930 71 326 2.0 16.0 0.00 0.00 0.00 45 1012.6
20260504211430 71 256 4.0 16.0 0.00 0.00 0.00 44 1012.5
20260504210901 72 241 4.0 12.0 0.00 0.00 0.00 44 1012.5
20260504210330 72 244 2.0 12.0 0.00 0.00 0.00 43 1012.4
20260504205832 72 151 2.0 12.0 0.00 0.00 0.00 45 1012.2
20260504205301 73 216 3.0 12.0 0.00 0.00 0.00 44 1012.2
20260504204731 73 177 3.0 14.0 0.00 0.00 0.00 43 1012.3
20260504204229 73 242 5.0 14.0 0.00 0.00 0.00 42 1012.2
20260504203659 74 248 2.0 16.0 0.00 0.00 0.00 43 1012.3
20260504203129 76 346 2.0 16.0 0.00 0.00 0.00 41 1012.2
20260504202628 76 152 5.0 13.0 0.00 0.00 0.00 40 1012.2
20260504202100 75 269 9.0 13.0 0.00 0.00 0.00 35 1012.4
20260504201529 76 175 9.0 12.0 0.00 0.00 0.00 36 1012.4
20260504201035 76 228 8.0 9.0 0.00 0.00 0.00 36 1012.5
20260504200458 74 229 6.0 16.0 0.00 0.00 0.00 37 1012.7
20260504195928 74 234 13.0 16.0 0.00 0.00 0.00 36 1012.8
20260504195429 76 194 11.0 14.0 0.00 0.00 0.00 35 1012.6
20260504195119 76 305 2.0 11.0 0.00 0.00 0.00 34 1012.7
20260504194548 75 167 4.0 12.0 0.00 0.00 0.00 36 1012.8
20260504193828 74 247 8.0 12.0 0.00 0.00 0.00 36 1012.9
20260504193258 75 253 5.0 24.0 0.00 0.00 0.00 36 1012.9
20260504192727 74 209 6.0 24.0 0.00 0.00 0.00 36 1013.1
20260504192228 73 217 12.0 14.0 0.00 0.00 0.00 37 1013.2
20260504191658 76 318 3.0 12.0 0.00 0.00 0.00 36 1013.3
20260504191127 75 241 8.0 12.0 0.00 0.00 0.00 37 1013.5
20260504190627 75 246 0.0 7.0 0.00 0.00 0.00 37 1013.5
20260504190104 74 205 4.0 14.0 0.00 0.00 0.00 40 1013.5
20260504185527 74 59 0.0 14.0 0.00 0.00 0.00 40 1013.4
20260504185029 74 200 2.0 14.0 0.00 0.00 0.00 39 1013.6
20260504184457 74 273 5.0 10.0 0.00 0.00 0.00 36 1013.8
20260504184201 74 243 7.0 13.0 0.00 0.00 0.00 37 1013.9
20260504183426 74 185 4.0 13.0 0.00 0.00 0.00 36 1013.9
20260504182855 73 194 5.0 17.0 0.00 0.00 0.00 36 1013.8
20260504182325 73 230 7.0 17.0 0.00 0.00 0.00 39 1013.9
20260504181825 74 248 0.0 16.0 0.00 0.00 0.00 35 1014.3
20260504181255 73 215 8.0 10.0 0.00 0.00 0.00 38 1014.4
20260504180726 73 267 2.0 15.0 0.00 0.00 0.00 36 1014.4
20260504180226 72 242 7.0 15.0 0.00 0.00 0.00 40 1014.4
20260504175655 73 352 2.0 18.0 0.00 0.00 0.00 35 1014.4
20260504175125 72 352 3.0 18.0 0.00 0.00 0.00 38 1014.4
20260504174624 73 239 3.0 13.0 0.00 0.00 0.00 36 1014.4
20260504174054 72 346 2.0 13.0 0.00 0.00 0.00 36 1014.4
20260504173554 72 282 7.0 14.0 0.00 0.00 0.00 36 1014.7
20260504173026 72 304 7.0 14.0 0.00 0.00 0.00 37 1015.0
20260504172453 71 232 8.0 14.0 0.00 0.00 0.00 36 1014.8
20260504171954 72 298 0.0 15.0 0.00 0.00 0.00 38 1014.8
20260504171423 71 226 6.0 15.0 0.00 0.00 0.00 37 1014.8
20260504171112 71 222 3.0 12.0 0.00 0.00 0.00 36 1014.8
20260504170353 71 251 2.0 12.0 0.00 0.00 0.00 36 1015.1
20260504151149 68 236 4.0 6.0 0.00 0.00 0.00 40 1016.3
20260504150621 67 187 2.0 12.0 0.00 0.00 0.00 40 1016.4
20260504141248 62 196 3.0 7.0 0.00 0.00 0.00 50 1016.9
20260504140748 62 238 5.0 9.0 0.00 0.00 0.00 50 1016.6
20260504140232 61 214 6.0 11.0 0.00 0.00 0.00 50 1016.8
20260504130346 56 218 6.0 13.0 0.00 0.00 0.00 59 1017.4
20260504110612 51 223 2.0 6.0 0.00 0.00 0.00 70 1018.0
20260504110116 51 185 1.0 6.0 0.00 0.00 0.00 71 1018.0
20260504100211 52 231 2.0 11.0 0.00 0.00 0.00 72 1018.0
20260504081537 52 215 2.0 5.0 0.00 0.00 0.00 69 1017.9
20260504081227 52 232 2.0 4.0 0.00 0.00 0.00 69 1018.0
20260504080506 52 212 2.0 8.0 0.00 0.00 0.00 70 1018.0
20260504070117 51 146 4.0 4.0 0.00 0.00 0.00 72 1018.5
20260504060233 48 196 0.0 2.0 0.00 0.00 0.00 75 1018.2
20260504050332 42 196 1.0 2.0 0.00 0.00 0.00 89 1018.2
20260504045830 42 81 0.0 2.0 0.00 0.00 0.00 88 1018.3
20260504045300 41 188 0.0 2.0 0.00 0.00 0.00 89 1018.3
20260504044950 41 70 0.0 2.0 0.00 0.00 0.00 90 1018.4
20260504044232 40 107 1.0 2.0 0.00 0.00 0.00 91 1018.2
20260504043920 40 48 0.0 2.0 0.00 0.00 0.00 91 1018.1
20260504043130 40 75 0.0 2.0 0.00 0.00 0.00 90 1018.2
20260504042629 40 57 0.0 2.0 0.00 0.00 0.00 90 1018.4
20260504042059 40 69 1.0 2.0 0.00 0.00 0.00 91 1018.4
20260504041530 40 211 1.0 2.0 0.00 0.00 0.00 91 1018.4
20260504041309 40 54 0.0 2.0 0.00 0.00 0.00 92 1018.1
20260504040458 40 64 1.0 2.0 0.00 0.00 0.00 93 1018.3
20260504035929 39 50 1.0 2.0 0.00 0.00 0.00 94 1018.2
20260504035429 39 92 1.0 2.0 0.00 0.00 0.00 94 1018.4
20260504034858 39 115 0.0 2.0 0.00 0.00 0.00 95 1018.2
20260504034329 39 44 1.0 2.0 0.00 0.00 0.00 95 1017.9
20260504033829 38 72 2.0 2.0 0.00 0.00 0.00 95 1018.0
20260504033259 38 72 1.0 2.0 0.00 0.00 0.00 95 1018.1
20260504032728 38 77 0.0 2.0 0.00 0.00 0.00 95 1017.8
20260504032227 38 116 2.0 2.0 0.00 0.00 0.00 95 1018.0
20260504031127 38 105 0.0 2.0 0.00 0.00 0.00 94 1017.9
20260504030557 38 64 2.0 3.0 0.00 0.00 0.00 93 1017.6
20260504025527 39 42 0.0 3.0 0.00 0.00 0.00 92 1017.8
20260504024957 38 78 2.0 3.0 0.00 0.00 0.00 92 1017.7
20260504024457 38 55 1.0 3.0 0.00 0.00 0.00 92 1017.7
20260504024145 39 71 0.0 2.0 0.00 0.00 0.00 92 1017.5
20260504023357 39 140 1.0 3.0 0.00 0.00 0.00 91 1017.7
20260504022856 39 70 1.0 3.0 0.00 0.00 0.00 91 1017.6
20260504022327 40 105 0.0 2.0 0.00 0.00 0.00 90 1017.7
20260504021826 39 93 0.0 2.0 0.00 0.00 0.00 90 1017.8
20260504021308 39 62 1.0 2.0 0.00 0.00 0.00 89 1017.7
20260504020725 40 125 2.0 2.0 0.00 0.00 0.00 88 1017.6
20260504020226 40 92 0.0 2.0 0.00 0.00 0.00 87 1017.7
20260504015914 40 81 0.0 2.0 0.00 0.00 0.00 87 1017.5
20260504015126 41 105 0.0 2.0 0.00 0.00 0.00 86 1017.7
20260504014627 40 124 0.0 2.0 0.00 0.00 0.00 85 1017.4
20260504014056 41 98 0.0 2.0 0.00 0.00 0.00 84 1017.3
20260504013525 41 93 1.0 3.0 0.00 0.00 0.00 82 1017.5
20260504013029 42 106 2.0 3.0 0.00 0.00 0.00 82 1017.5
20260504012507 42 119 0.0 2.0 0.00 0.00 0.00 81 1017.3
20260504012141 43 100 1.0 3.0 0.00 0.00 0.00 81 1017.3